Tracking 18843 objects as of 20-November-2017
HD Live streaming from Space Station
objects crossing your sky now

MAQSAT H

Track MAQSAT H now!
10-day predictions
MAQSAT H is classified as:


NORAD ID: 25023
Int'l Code: 1997-066A
Perigee: 544.6 km
Apogee: 26,444.8 km
Inclination: 7.8 °
Period: 464.4 minutes
Semi major axis: 19865 km
RCS: 21.0323 m2 (large)
Launch date: October 30, 1997
Source: European Space Agency (ESA)
Launch site: FRENCH GUIANA (FRGUI)
aabbcc
Your satellite tracking list
Your tracking list is empty




NASA's NSSDC Master Catalog

Two Line Element Set (TLE):
1 25023U 97066A   17323.58566523 +.00000020 +00000-0 +63515-3 0  9991
2 25023 007.8076 291.2319 6518847 305.2315 053.3464 03.10061160226707
Source of the keplerian elements: AFSPC